Location: Degersen
(52.2871°N, 9.5716°E)
Time: 06:02:51
(UTC+00:00)

Cosmos 1821 Rocket - Pass Details

Date: 20 January 2026
Orbit: 943 x 1004 km, 82.9° (Epoch: 18 February)

Event Time Altitude Azimuth Distance (km) Brightness Sun altitude
Rises 06:12:14 0° 191° (S) 3,715 7.2 -10.0°
Reaches altitude 10° 06:14:45 10° 192° (SSW) 2,765 6.5 -9.6°
Maximum altitude 06:21:08 83° 280° (W) 1,008 4.0 -8.7°
Drops below altitude 10° 06:27:28 10° 9° (N) 2,749 6.2 -7.8°
Sets 06:29:59 0° 11° (N) 3,692 6.9 -7.5°
